FW1404 Weather Reports


Display with metric or nautical units.
time (UTC)temp
F
wind
direction
speed
MPH
gust
MPH
rain 1hr
in
rain 24hr
in
rain mn
in
humidity
%
barometer
mb
20260508214615 49 51 0.0 0.0 0.00 0.02 0.02 82 1019.7
20260508214114 50 51 0.0 0.0 0.00 0.02 0.02 82 1019.7
20260508213617 50 51 0.0 0.0 0.00 0.02 0.02 81 1019.7
20260508213405 50 51 0.0 0.0 0.00 0.02 0.02 82 1019.7
20260508212617 50 51 0.0 0.0 0.00 0.02 0.02 82 1019.6
20260508212115 50 51 0.0 0.0 0.00 0.02 0.02 81 1019.6
20260508211613 50 51 0.0 0.0 0.00 0.02 0.02 81 1019.6
20260508211350 50 51 0.0 0.0 0.00 0.02 0.02 81 1019.6
20260508210704 50 51 0.0 1.0 0.00 0.02 0.02 81 1019.8
20260508210644 50 51 0.0 0.0 0.00 0.02 0.02 81 1019.8
20260508205851 50 51 0.0 1.0 0.00 0.02 0.02 81 1019.7
20260508205103 50 51 0.0 1.0 0.00 0.02 0.02 81 1019.8
20260508204947 50 53 0.0 2.0 0.00 0.02 0.02 81 1019.7
20260508204943 50 51 0.0 2.0 0.00 0.02 0.02 81 1019.7
20260508203603 50 51 1.0 2.0 0.00 0.02 0.02 80 1019.7
20260508203104 50 53 1.0 1.0 0.00 0.02 0.02 81 1019.6
20260508202605 50 51 1.0 1.0 0.00 0.02 0.02 80 1019.7
20260508202105 50 51 1.0 1.0 0.00 0.02 0.02 80 1019.5
20260508201857 50 53 0.0 1.0 0.00 0.02 0.02 80 1019.6
20260508201104 51 53 0.0 1.0 0.00 0.02 0.02 80 1019.6
20260508200850 51 51 0.0 0.0 0.00 0.02 0.02 80 1019.6
20260508200105 51 53 0.0 0.0 0.00 0.02 0.02 80 1019.6
20260508195606 51 51 0.0 0.0 0.00 0.02 0.02 79 1019.5
20260508195105 51 51 0.0 0.0 0.00 0.02 0.02 79 1019.5
20260508194603 51 51 0.0 0.0 0.00 0.02 0.02 79 1019.6
20260508194105 51 53 0.0 1.0 0.00 0.02 0.02 79 1019.6
20260508193856 51 53 0.0 1.0 0.00 0.02 0.02 79 1019.5
20260508193345 51 53 1.0 1.0 0.00 0.02 0.02 79 1019.5
20260508192606 51 53 1.0 2.0 0.00 0.02 0.02 79 1019.5
20260508192105 51 53 1.0 2.0 0.00 0.02 0.02 78 1019.4
20260508191700 51 53 1.0 3.0 0.00 0.02 0.02 78 1019.4
20260508191639 51 53 1.0 2.0 0.00 0.02 0.02 78 1019.4
20260508190605 51 53 2.0 3.0 0.00 0.02 0.02 78 1019.4
20260508190104 51 53 2.0 2.0 0.00 0.02 0.02 78 1019.4
20260508185607 51 53 1.0 2.0 0.00 0.02 0.02 78 1019.3
20260508185105 51 53 1.0 2.0 0.00 0.02 0.02 77 1019.3
20260508184606 51 53 2.0 3.0 0.00 0.02 0.02 77 1019.2
20260508184358 52 53 2.0 4.0 0.00 0.02 0.02 77 1019.2
20260508183626 52 53 4.0 4.0 0.00 0.02 0.02 77 1019.2
20260508183440 52 51 2.0 4.0 0.00 0.02 0.02 76 1019.1
20260508183436 52 51 3.0 4.0 0.00 0.02 0.02 77 1019.1
20260508182105 52 51 3.0 5.0 0.00 0.02 0.02 76 1019.0
20260508181605 52 50 3.0 5.0 0.00 0.02 0.02 76 1018.9
20260508181106 52 78 3.0 3.0 0.00 0.02 0.02 76 1018.9
20260508180605 52 78 2.0 3.0 0.00 0.02 0.02 75 1018.9
20260508180047 52 78 2.0 3.0 0.00 0.02 0.02 75 1018.8
20260508175849 52 78 2.0 3.0 0.00 0.02 0.02 75 1018.8
20260508175042 52 78 2.0 3.0 0.00 0.02 0.02 74 1018.8
20260508174532 52 78 2.0 3.0 0.00 0.02 0.02 74 1018.8
20260508174033 52 68 1.0 3.0 0.00 0.02 0.02 75 1018.8
20260508173815 52 68 1.0 2.0 0.00 0.02 0.02 74 1018.8
20260508173032 52 68 1.0 2.0 0.00 0.02 0.02 74 1018.8
20260508172533 52 68 2.0 3.0 0.00 0.02 0.02 73 1018.7
20260508172421 53 68 0.0 2.0 0.00 0.02 0.02 73 1018.7
20260508172115 53 68 2.0 3.0 0.00 0.02 0.02 73 1018.7
20260508171015 53 68 1.0 2.0 0.00 0.02 0.02 73 1018.6
20260508170516 53 68 1.0 3.0 0.00 0.02 0.02 73 1018.7
20260508170010 53 68 2.0 3.0 0.00 0.02 0.02 73 1018.6
20260508165547 53 68 2.0 4.0 0.00 0.02 0.02 73 1018.5
20260508165531 53 68 2.0 3.0 0.00 0.02 0.02 73 1018.6
20260508164510 53 67 2.0 4.0 0.00 0.02 0.02 73 1018.7
20260508164010 53 67 1.0 3.0 0.00 0.02 0.02 73 1018.6
20260508163758 53 67 2.0 4.0 0.00 0.02 0.02 72 1018.7
20260508163010 53 65 2.0 4.0 0.00 0.02 0.02 73 1018.6
20260508162510 53 67 3.0 4.0 0.00 0.02 0.02 73 1018.7
20260508162008 53 75 2.0 4.0 0.00 0.02 0.02 72 1018.7
20260508161505 53 75 2.0 4.0 0.00 0.02 0.02 73 1018.6
20260508161005 53 74 1.0 4.0 0.00 0.02 0.02 72 1018.6
20260508160504 53 75 2.0 4.0 0.00 0.02 0.02 72 1018.6
20260508160005 53 71 2.0 5.0 0.00 0.02 0.02 71 1018.6
20260508155505 54 75 4.0 5.0 0.00 0.02 0.02 71 1018.7
20260508155005 54 80 2.0 4.0 0.00 0.03 0.02 71 1018.6
20260508154505 54 81 3.0 5.0 0.00 0.03 0.02 71 1018.5
20260508154005 54 81 3.0 5.0 0.00 0.03 0.02 71 1018.6
20260508153504 54 92 3.0 5.0 0.00 0.03 0.02 71 1018.6
20260508153005 54 64 2.0 5.0 0.00 0.03 0.02 71 1018.6
20260508152746 54 70 3.0 5.0 0.00 0.03 0.02 71 1018.5
20260508152004 54 37 2.0 7.0 0.00 0.03 0.02 71 1018.5
20260508151504 54 34 5.0 7.0 0.00 0.04 0.02 71 1018.5
20260508151006 54 47 4.0 6.0 0.00 0.05 0.02 71 1018.6
20260508150503 54 53 3.0 7.0 0.00 0.05 0.02 71 1018.6
20260508150006 54 27 5.0 7.0 0.00 0.06 0.02 71 1018.6
20260508145505 54 27 5.0 7.0 0.00 0.06 0.02 70 1018.6
20260508145005 54 54 4.0 7.0 0.00 0.06 0.02 70 1018.6
20260508144749 54 39 5.0 7.0 0.00 0.07 0.02 70 1018.7
20260508144004 54 61 4.0 9.0 0.00 0.07 0.02 70 1018.4
20260508143505 54 33 4.0 11.0 0.00 0.07 0.02 68 1018.5
20260508143005 54 16 7.0 11.0 0.00 0.07 0.02 69 1018.5
20260508142505 55 40 3.0 10.0 0.00 0.07 0.02 69 1018.5
20260508142006 55 41 6.0 10.0 0.00 0.07 0.02 68 1018.5
20260508141503 55 49 5.0 7.0 0.00 0.07 0.02 68 1018.4
20260508141006 56 358 5.0 10.0 0.00 0.07 0.02 67 1018.5
20260508140505 56 356 5.0 10.0 0.00 0.07 0.02 67 1018.4
20260508140005 56 40 5.0 7.0 0.00 0.07 0.02 67 1018.4
20260508135504 56 26 5.0 7.0 0.00 0.07 0.02 68 1018.4
20260508135246 56 16 2.0 6.0 0.00 0.07 0.02 71 1018.2
20260508134505 55 39 4.0 5.0 0.00 0.07 0.02 71 1018.3
20260508134004 55 54 3.0 5.0 0.00 0.07 0.02 71 1018.4
20260508133504 55 33 4.0 5.0 0.00 0.07 0.02 72 1018.4
20260508133003 54 47 3.0 5.0 0.00 0.07 0.02 71 1018.5
20260508132504 54 33 4.0 6.0 0.00 0.07 0.02 71 1018.5
20260508132004 55 50 4.0 6.0 0.00 0.07 0.02 70 1018.6
20260508131501 55 43 2.0 5.0 0.00 0.07 0.02 69 1018.6
20260508130933 55 68 2.0 7.0 0.00 0.07 0.02 70 1018.7
20260508130431 55 67 6.0 7.0 0.00 0.07 0.02 69 1018.8
20260508125933 56 54 4.0 7.0 0.00 0.07 0.02 70 1018.8
20260508125407 55 8 3.0 5.0 0.00 0.07 0.02 72 1018.8
20260508124905 55 8 1.0 4.0 0.00 0.07 0.02 72 1018.8
20260508124407 54 8 1.0 5.0 0.00 0.07 0.02 72 1018.8
20260508123904 54 5 3.0 5.0 0.00 0.07 0.02 76 1018.8
20260508123404 53 2 1.0 4.0 0.00 0.07 0.02 76 1018.8
20260508122905 53 2 1.0 4.0 0.00 0.07 0.02 76 1018.7
20260508122403 53 2 2.0 4.0 0.00 0.07 0.02 76 1018.7
20260508122154 52 10 1.0 4.0 0.00 0.07 0.02 76 1018.7
20260508121403 52 10 3.0 5.0 0.00 0.07 0.02 76 1018.8
20260508120903 52 10 4.0 5.0 0.00 0.07 0.02 76 1019.0
20260508120403 52 6 4.0 5.0 0.00 0.07 0.02 76 1019.0
20260508115902 52 25 3.0 6.0 0.00 0.07 0.02 74 1019.0
20260508115401 52 29 5.0 6.0 0.00 0.07 0.02 74 1018.9
20260508115140 53 44 4.0 5.0 0.00 0.07 0.02 75 1019.0
20260508114402 53 13 4.0 10.0 0.00 0.07 0.02 74 1018.9
20260508114149 53 3 5.0 10.0 0.00 0.07 0.02 73 1018.9
20260508113402 53 26 3.0 5.0 0.00 0.07 0.02 74 1018.9
20260508112903 54 29 3.0 4.0 0.00 0.07 0.02 74 1018.9
20260508112401 53 6 0.0 5.0 0.00 0.07 0.02 77 1018.8
20260508111902 53 8 1.0 5.0 0.00 0.07 0.02 77 1018.8
20260508111402 53 23 0.0 4.0 0.00 0.07 0.02 78 1018.8
20260508110901 53 91 1.0 3.0 0.00 0.07 0.02 78 1018.8
20260508110402 52 87 2.0 3.0 0.00 0.07 0.02 77 1018.9
20260508105900 52 56 1.0 5.0 0.00 0.07 0.02 78 1018.9
20260508105650 52 54 1.0 5.0 0.00 0.07 0.02 78 1018.9
20260508104901 52 37 1.0 5.0 0.00 0.07 0.02 78 1018.8
20260508104400 52 65 2.0 4.0 0.00 0.08 0.02 78 1018.9
20260508103901 52 65 2.0 4.0 0.00 0.08 0.02 79 1018.9
20260508103440 51 29 0.0 4.0 0.00 0.09 0.02 80 1018.8
20260508103428 51 30 2.0 4.0 0.00 0.08 0.02 80 1018.9
20260508102402 51 29 1.0 5.0 0.00 0.09 0.02 80 1018.9
20260508101901 51 29 3.0 5.0 0.00 0.09 0.02 80 1018.9
20260508101402 51 20 3.0 5.0 0.00 0.09 0.02 80 1018.9
20260508100902 51 3 4.0 5.0 0.00 0.09 0.02 81 1018.8
20260508100402 51 1 4.0 5.0 0.00 0.09 0.02 81 1018.9
20260508095901 51 359 3.0 4.0 0.00 0.09 0.02 82 1018.9
20260508095359 51 73 0.0 4.0 0.00 0.09 0.02 82 1018.8
20260508094900 51 73 2.0 5.0 0.00 0.09 0.02 82 1018.8
20260508094645 51 73 3.0 5.0 0.00 0.09 0.02 83 1018.8
20260508093900 51 71 2.0 4.0 0.00 0.09 0.02 83 1018.8
20260508093400 50 78 2.0 5.0 0.00 0.09 0.02 82 1018.8
20260508092859 50 20 2.0 5.0 0.00 0.09 0.02 83 1018.8
20260508092400 50 60 0.0 3.0 0.00 0.09 0.02 84 1018.8
20260508091858 50 60 1.0 4.0 0.00 0.09 0.02 84 1018.8
20260508091358 49 58 3.0 4.0 0.00 0.09 0.02 84 1018.9
20260508091148 49 58 2.0 4.0 0.00 0.09 0.02 85 1018.9
20260508090400 49 87 2.0 4.0 0.00 0.09 0.02 85 1018.9
20260508085859 49 87 2.0 4.0 0.00 0.09 0.02 86 1018.9
20260508085359 49 96 1.0 3.0 0.00 0.09 0.02 87 1018.8
20260508084858 49 96 2.0 3.0 0.00 0.09 0.02 87 1018.7
20260508084358 49 96 1.0 3.0 0.00 0.09 0.02 88 1018.7
20260508084141 49 98 2.0 3.0 0.00 0.09 0.02 88 1018.7
20260508083646 48 99 2.0 3.0 0.00 0.09 0.02 88 1018.7
20260508082900 48 65 1.0 3.0 0.00 0.09 0.02 88 1018.7
20260508082400 48 64 0.0 4.0 0.00 0.09 0.02 89 1018.7
20260508081857 48 64 1.0 4.0 0.00 0.09 0.02 89 1018.6
20260508081648 48 65 2.0 4.0 0.00 0.09 0.02 89 1018.6
20260508080858 47 60 1.0 4.0 0.00 0.09 0.02 89 1018.6
20260508080358 47 60 2.0 4.0 0.00 0.09 0.02 89 1018.6
20260508075856 47 60 1.0 3.0 0.00 0.09 0.02 89 1018.6
20260508075357 47 60 0.0 4.0 0.00 0.09 0.02 89 1018.5
20260508074857 47 60 2.0 4.0 0.00 0.09 0.02 89 1018.5
20260508074356 47 60 3.0 5.0 0.00 0.10 0.02 90 1018.4
20260508073857 47 60 2.0 5.0 0.00 0.10 0.02 90 1018.5
20260508073357 47 51 2.0 5.0 0.00 0.10 0.02 90 1018.5
20260508072857 47 29 2.0 5.0 0.00 0.10 0.02 90 1018.4
20260508072736 47 56 4.0 5.0 0.00 0.11 0.02 90 1018.2
20260508072419 47 27 4.0 5.0 0.00 0.10 0.02 90 1018.3
20260508071356 47 34 3.0 5.0 0.00 0.11 0.02 90 1018.3
20260508070857 47 70 3.0 5.0 0.00 0.11 0.02 90 1018.2
20260508070356 46 53 2.0 5.0 0.00 0.12 0.02 90 1018.3
20260508065857 46 36 4.0 5.0 0.00 0.12 0.02 90 1018.2
20260508065355 46 22 4.0 6.0 0.00 0.12 0.02 90 1018.2
20260508064856 46 44 4.0 6.0 0.00 0.12 0.02 91 1018.1
20260508064644 46 50 4.0 6.0 0.00 0.12 0.02 91 1018.1
20260508063857 46 57 3.0 6.0 0.00 0.12 0.02 91 1018.1
20260508063355 46 37 3.0 6.0 0.00 0.13 0.02 91 1017.9
20260508062856 46 41 3.0 6.0 0.00 0.13 0.02 91 1017.9
20260508062355 46 37 4.0 9.0 0.00 0.13 0.02 90 1017.8
20260508061855 46 53 5.0 9.0 0.00 0.13 0.02 91 1017.8
20260508061355 46 63 2.0 5.0 0.00 0.13 0.02 91 1017.8
20260508061221 46 33 2.0 6.0 0.00 0.13 0.02 91 1017.7
20260508061217 46 36 2.0 6.0 0.00 0.13 0.02 91 1017.7
20260508055855 45 34 3.0 6.0 0.00 0.13 0.02 91 1017.7
20260508055355 46 36 5.0 6.0 0.00 0.13 0.02 91 1017.7
20260508054854 46 22 4.0 6.0 0.00 0.13 0.02 91 1017.7
20260508054638 46 46 3.0 6.0 0.00 0.13 0.02 91 1017.7
20260508054142 46 30 3.0 6.0 0.00 0.13 0.02 91 1017.6
20260508053355 46 27 3.0 6.0 0.00 0.13 0.02 91 1017.6
20260508052857 46 36 2.0 5.0 0.00 0.13 0.02 91 1017.6
20260508052358 46 49 2.0 4.0 0.00 0.13 0.02 91 1017.6
20260508051857 46 54 2.0 5.0 0.00 0.13 0.02 91 1017.6
20260508051357 46 34 4.0 5.0 0.00 0.13 0.02 91 1017.5
20260508050857 46 39 3.0 4.0 0.00 0.13 0.02 91 1017.5
20260508050353 45 40 3.0 5.0 0.00 0.13 0.02 91 1017.6
20260508045853 45 65 4.0 5.0 0.00 0.13 0.02 91 1017.5
20260508045355 45 51 3.0 4.0 0.00 0.13 0.02 91 1017.5
20260508044855 45 51 2.0 4.0 0.00 0.13 0.02 91 1017.5
20260508044353 45 51 2.0 4.0 0.00 0.13 0.02 91 1017.2
20260508043853 45 39 1.0 5.0 0.00 0.13 0.02 91 1017.4
20260508043353 45 30 2.0 5.0 0.00 0.13 0.02 91 1017.2
20260508042853 45 33 1.0 4.0 0.00 0.13 0.02 91 1017.1
20260508042353 45 29 2.0 5.0 0.00 0.13 0.02 91 1017.0
20260508041853 45 9 3.0 6.0 0.00 0.13 0.02 91 1017.0
20260508041645 45 13 4.0 6.0 0.00 0.13 0.02 91 1017.0
20260508040852 45 36 5.0 6.0 0.00 0.13 0.02 91 1017.0
20260508040352 46 60 3.0 5.0 0.00 0.13 0.02 91 1017.0
20260508035851 45 39 2.0 5.0 0.00 0.13 0.02 91 1017.1
20260508035352 45 34 2.0 4.0 0.00 0.13 0.02 91 1016.9
20260508035141 45 34 2.0 4.0 0.00 0.13 0.02 91 1016.9
20260508034354 45 32 3.0 3.0 0.00 0.13 0.02 91 1016.9
20260508033853 45 32 2.0 3.0 0.00 0.13 0.02 91 1016.9
20260508033352 45 33 2.0 4.0 0.00 0.13 0.02 91 1016.9
20260508032853 45 33 3.0 4.0 0.00 0.13 0.02 91 1016.9
20260508032646 45 29 3.0 4.0 0.00 0.13 0.02 91 1016.8
20260508031851 45 39 1.0 4.0 0.00 0.14 0.02 91 1016.7
20260508031351 45 39 2.0 4.0 0.00 0.14 0.02 91 1016.7
20260508030852 45 39 2.0 3.0 0.00 0.16 0.02 91 1016.8
20260508030442 45 39 1.0 3.0 0.00 0.20 0.02 91 1016.8
20260508030425 45 39 1.0 3.0 0.00 0.18 0.02 91 1016.8
20260508025350 45 39 1.0 3.0 0.00 0.21 0.02 91 1016.8
20260508024850 45 39 2.0 3.0 0.00 0.22 0.02 91 1016.8
20260508024351 45 39 1.0 2.0 0.00 0.23 0.02 91 1016.7
20260508023946 45 39 0.0 3.0 0.00 0.26 0.02 91 1016.6
20260508023925 45 39 0.0 2.0 0.00 0.24 0.02 91 1016.5
20260508023138 45 39 2.0 3.0 0.00 0.28 0.02 91 1016.7
20260508022352 45 37 2.0 4.0 0.00 0.29 0.02 91 1016.7
20260508021850 45 37 2.0 4.0 0.00 0.31 0.02 91 1016.7
20260508021350 45 37 2.0 3.0 0.00 0.31 0.02 91 1016.7
20260508020850 45 37 1.0 3.0 0.00 0.33 0.02 91 1016.6
20260508020350 45 37 2.0 3.0 0.00 0.34 0.02 91 1016.7
20260508015851 45 37 0.0 4.0 0.00 0.35 0.02 90 1016.7
20260508015351 45 47 0.0 4.0 0.00 0.36 0.02 90 1016.6
20260508015136 45 46 2.0 3.0 0.00 0.36 0.02 90 1016.6
20260508014348 45 46 1.0 3.0 0.00 0.38 0.02 90 1016.6
20260508013849 45 46 0.0 3.0 0.00 0.38 0.02 90 1016.5
20260508013350 45 46 2.0 3.0 0.00 0.39 0.02 90 1016.5
20260508013132 45 46 2.0 3.0 0.00 0.39 0.02 90 1016.5
20260508012351 45 46 1.0 3.0 0.00 0.40 0.02 90 1016.5
20260508011851 45 46 1.0 3.0 0.00 0.40 0.02 90 1016.5
20260508011628 45 46 2.0 4.0 0.00 0.41 0.02 90 1016.5
20260508010850 45 43 2.0 5.0 0.00 0.41 0.02 90 1016.5
20260508010350 45 40 4.0 5.0 0.00 0.41 0.02 90 1016.4
20260508005936 45 9 3.0 5.0 0.00 0.41 0.02 90 1016.5
20260508005920 45 13 2.0 5.0 0.00 0.41 0.02 90 1016.5
20260508004849 45 51 1.0 7.0 0.00 0.41 0.02 90 1016.3
20260508004348 45 51 4.0 7.0 0.00 0.41 0.02 90 1016.4
20260508003848 45 53 2.0 4.0 0.00 0.41 0.02 90 1016.4
20260508003348 45 39 1.0 4.0 0.00 0.41 0.02 90 1016.4
20260508002849 45 29 1.0 4.0 0.00 0.41 0.02 90 1016.4
20260508002414 45 18 5.0 7.0 0.00 0.41 0.02 90 1016.4
20260508002403 45 44 4.0 7.0 0.00 0.41 0.02 90 1016.4
20260508001634 45 49 3.0 5.0 0.00 0.41 0.02 90 1016.5
20260508000848 45 54 2.0 5.0 0.00 0.41 0.02 90 1016.5
20260508000349 45 40 3.0 5.0 0.00 0.41 0.02 90 1016.4
20260508000129 45 40 4.0 6.0 0.00 0.41 0.02 90 1016.4
20260507235347 45 44 3.0 7.0 0.00 0.41 0.02 90 1016.5
20260507234848 46 41 4.0 7.0 0.00 0.41 0.02 90 1016.5
20260507234349 46 32 3.0 6.0 0.00 0.41 0.02 90 1016.5
20260507233846 46 41 4.0 6.0 0.01 0.41 0.02 90 1016.6
20260507233630 46 15 4.0 5.0 0.01 0.41 0.02 90 1016.7
20260507232846 46 10 2.0 3.0 0.01 0.41 0.02 90 1016.7
20260507232347 46 26 2.0 6.0 0.01 0.41 0.02 90 1016.7
20260507232124 46 26 4.0 6.0 0.01 0.41 0.02 90 1016.6
20260507231346 46 47 2.0 5.0 0.01 0.41 0.02 90 1016.6
20260507230845 46 56 3.0 5.0 0.01 0.41 0.02 90 1016.5
20260507230345 46 20 3.0 5.0 0.01 0.41 0.02 90 1016.6
20260507225847 46 16 2.0 3.0 0.02 0.39 0.02 90 1016.6
20260507225347 46 16 2.0 6.0 0.02 0.39 0.02 90 1016.7
20260507224846 46 16 3.0 6.0 0.02 0.39 0.02 90 1016.7
20260507224345 46 15 1.0 4.0 0.02 0.39 0.02 90 1016.7
20260507223847 46 27 3.0 4.0 0.01 0.39 0.01 90 1016.8
20260507223345 46 29 3.0 5.0 0.02 0.39 0.01 90 1016.8
20260507222845 46 29 3.0 5.0 0.02 0.39 0.01 90 1016.8
20260507222347 46 27 2.0 4.0 0.02 0.39 0.01 90 1016.7
20260507221847 46 26 2.0 5.0 0.02 0.39 0.01 90 1016.7
20260507221629 46 32 3.0 5.0 0.02 0.39 0.01 90 1016.7
20260507220847 46 27 2.0 5.0 0.02 0.39 0.01 90 1016.7
20260507220347 46 30 3.0 3.0 0.02 0.39 0.00 90 1016.7
20260507215847 46 32 1.0 4.0 0.01 0.39 0.39 90 1016.7
20260507215347 46 29 3.0 5.0 0.01 0.39 0.39 90 1016.6
20260507214846 46 22 3.0 5.0 0.01 0.39 0.39 90 1016.6